| time (UTC) | temp F | wind direction | speed MPH | gust MPH | rain 1hr in | rain 24hr in | rain mn in | humidity % | barometer mb |
| 20260903020023 | 96 | 264 | 1.0 | 5.0 | 0.00 | 0.00 | 0.00 | 32 | 1006.0 |
| 20260903014520 | 96 | 217 | 0.0 | 2.0 | 0.00 | 0.00 | 0.00 | 32 | 1005.8 |
| 20260903013019 | 97 | 271 | 0.0 | 3.0 | 0.00 | 0.00 | 0.00 | 31 | 1005.8 |
| 20260903011515 | 98 | 258 | 0.0 | 3.0 | 0.00 | 0.00 | 0.00 | 30 | 1005.8 |
| 20260903010011 | 100 | 230 | 0.0 | 3.0 | 0.00 | 0.00 | 0.00 | 28 | 1005.7 |
| 20260903004516 | 100 | 264 | 0.0 | 1.0 | 0.00 | 0.00 | 0.00 | 29 | 1005.7 |
| 20260903003009 | 100 | 251 | 0.0 | 3.0 | 0.00 | 0.00 | 0.00 | 28 | 1005.8 |
| 20260903001513 | 101 | 228 | 0.0 | 4.0 | 0.00 | 0.00 | 0.00 | 28 | 1005.9 |
| 20260903000004 | 102 | 272 | 0.0 | 7.0 | 0.00 | 0.00 | 0.00 | 27 | 1005.9 |
| 20260902234502 | 101 | 239 | 0.0 | 12.0 | 0.00 | 0.00 | 0.00 | 27 | 1006.0 |
| 20260902233101 | 102 | 217 | 0.0 | 3.0 | 0.00 | 0.00 | 0.00 | 26 | 1006.2 |
| 20260902231600 | 102 | 264 | 0.0 | 3.0 | 0.00 | 0.00 | 0.00 | 26 | 1006.4 |
| 20260902224553 | 103 | 302 | 0.0 | 2.0 | 0.00 | 0.00 | 0.00 | 25 | 1006.6 |
| 20260902223050 | 103 | 255 | 0.0 | 3.0 | 0.00 | 0.00 | 0.00 | 26 | 1007.0 |
| 20260902221549 | 102 | 280 | 0.0 | 4.0 | 0.00 | 0.00 | 0.00 | 27 | 1007.1 |
| 20260902220044 | 102 | 242 | 0.0 | 3.0 | 0.00 | 0.00 | 0.00 | 28 | 1007.3 |
| 20260902214543 | 102 | 104 | 0.0 | 5.0 | 0.00 | 0.00 | 0.00 | 27 | 1007.5 |
| 20260902213039 | 101 | 242 | 2.0 | 6.0 | 0.00 | 0.00 | 0.00 | 27 | 1007.7 |
| 20260902211537 | 102 | 86 | 0.0 | 5.0 | 0.00 | 0.00 | 0.00 | 26 | 1007.8 |
| 20260902210049 | 102 | 208 | 0.0 | 5.0 | 0.00 | 0.00 | 0.00 | 29 | 1008.0 |
| 20260902204529 | 101 | 194 | 1.0 | 5.0 | 0.00 | 0.00 | 0.00 | 28 | 1008.4 |
| 20260902203026 | 101 | 261 | 1.0 | 8.0 | 0.00 | 0.00 | 0.00 | 29 | 1008.8 |
| 20260902201527 | 101 | 105 | 2.0 | 9.0 | 0.00 | 0.00 | 0.00 | 27 | 1009.0 |
| 20260902200026 | 101 | 217 | 0.0 | 5.0 | 0.00 | 0.00 | 0.00 | 29 | 1009.3 |
| 20260902194517 | 101 | 219 | 3.0 | 8.0 | 0.00 | 0.00 | 0.00 | 28 | 1009.5 |
| 20260902193012 | 100 | 210 | 2.0 | 11.0 | 0.00 | 0.00 | 0.00 | 30 | 1009.5 |
| 20260902191510 | 99 | 117 | 2.0 | 8.0 | 0.00 | 0.00 | 0.00 | 30 | 1010.0 |
| 20260902190004 | 99 | 245 | 0.0 | 6.0 | 0.00 | 0.00 | 0.00 | 31 | 1010.2 |
| 20260902184501 | 99 | 236 | 2.0 | 7.0 | 0.00 | 0.00 | 0.00 | 30 | 1010.4 |
| 20260902183114 | 99 | 229 | 3.0 | 8.0 | 0.00 | 0.00 | 0.00 | 30 | 1010.5 |
| 20260902181555 | 99 | 164 | 0.0 | 6.0 | 0.00 | 0.00 | 0.00 | 32 | 1010.8 |
| 20260902180054 | 99 | 249 | 1.0 | 8.0 | 0.00 | 0.00 | 0.00 | 31 | 1010.8 |
| 20260902174550 | 97 | 7 | 2.0 | 6.0 | 0.00 | 0.00 | 0.00 | 30 | 1010.9 |
| 20260902173048 | 96 | 155 | 1.0 | 6.0 | 0.00 | 0.00 | 0.00 | 35 | 1011.0 |
| 20260902171548 | 97 | 132 | 1.0 | 6.0 | 0.00 | 0.00 | 0.00 | 35 | 1011.0 |
| 20260902170047 | 95 | 146 | 1.0 | 4.0 | 0.00 | 0.00 | 0.00 | 42 | 1011.0 |
| 20260902164544 | 94 | 248 | 0.0 | 6.0 | 0.00 | 0.00 | 0.00 | 45 | 1011.1 |
| 20260902163053 | 93 | 250 | 0.0 | 4.0 | 0.00 | 0.00 | 0.00 | 45 | 1011.1 |
| 20260902161543 | 92 | 230 | 1.0 | 4.0 | 0.00 | 0.00 | 0.00 | 49 | 1011.2 |
| 20260902160042 | 91 | 182 | 0.0 | 7.0 | 0.00 | 0.00 | 0.00 | 50 | 1011.1 |
| 20260902154539 | 91 | 100 | 0.0 | 5.0 | 0.00 | 0.00 | 0.00 | 49 | 1011.0 |
| 20260902153040 | 90 | 105 | 0.0 | 5.0 | 0.00 | 0.00 | 0.00 | 50 | 1011.0 |
| 20260902151539 | 88 | 103 | 2.0 | 5.0 | 0.00 | 0.00 | 0.00 | 54 | 1010.9 |
| 20260902150038 | 87 | 100 | 2.0 | 8.0 | 0.00 | 0.00 | 0.00 | 55 | 1010.9 |
| 20260902144538 | 87 | 95 | 2.0 | 5.0 | 0.00 | 0.00 | 0.00 | 56 | 1010.9 |
| 20260902143036 | 87 | 99 | 1.0 | 3.0 | 0.00 | 0.00 | 0.00 | 55 | 1010.9 |
| 20260902141538 | 85 | 94 | 1.0 | 4.0 | 0.00 | 0.00 | 0.00 | 56 | 1010.7 |
| 20260902140042 | 85 | 96 | 1.0 | 3.0 | 0.00 | 0.00 | 0.00 | 57 | 1010.7 |
| 20260902134537 | 0 | 0.0 | 0.0 | 0.00 | 0.00 | 0.00 | 1010.4 | ||
| 20260902133032 | 0 | 0.0 | 0.0 | 0.00 | 0.00 | 0.00 | 1010.2 | ||
| 20260902131543 | 0 | 0.0 | 0.0 | 0.00 | 0.00 | 0.00 | 1010.1 | ||
| 20260902130030 | 0 | 0.0 | 0.0 | 0.00 | 0.00 | 0.00 | 1010.0 | ||
| 20260902124525 | 0 | 0.0 | 0.0 | 0.00 | 0.00 | 0.00 | 1009.9 | ||
| 20260902123020 | 0 | 0.0 | 0.0 | 0.00 | 0.00 | 0.00 | 1009.7 | ||
| 20260902121516 | 0 | 0.0 | 0.0 | 0.00 | 0.00 | 0.00 | 1009.6 | ||
| 20260902120012 | 0 | 0.0 | 0.0 | 0.00 | 0.00 | 0.00 | 1009.4 | ||
| 20260902114505 | 0 | 0.0 | 0.0 | 0.00 | 0.00 | 0.00 | 1009.4 | ||
| 20260902113113 | 0 | 0.0 | 0.0 | 0.00 | 0.00 | 0.00 | 1009.5 | ||
| 20260902111557 | 0 | 0.0 | 0.0 | 0.00 | 0.00 | 0.00 | 1009.3 | ||
| 20260902110052 | 0 | 0.0 | 0.0 | 0.00 | 0.00 | 0.00 | 1009.2 | ||
| 20260902104555 | 84 | 97 | 0.0 | 1.0 | 0.00 | 0.00 | 0.00 | 57 | 1009.3 |
| 20260902103055 | 84 | 88 | 0.0 | 2.0 | 0.00 | 0.00 | 0.00 | 57 | 1009.3 |
| 20260902101547 | 84 | 86 | 0.0 | 0.0 | 0.00 | 0.00 | 0.00 | 57 | 1009.3 |
| 20260902094542 | 85 | 87 | 0.0 | 0.0 | 0.00 | 0.00 | 0.00 | 57 | 1009.2 |
| 20260902093040 | 85 | 85 | 0.0 | 1.0 | 0.00 | 0.00 | 0.00 | 56 | 1009.2 |
| 20260902091559 | 85 | 98 | 0.0 | 1.0 | 0.00 | 0.00 | 0.00 | 56 | 1009.2 |
| 20260902090039 | 86 | 86 | 0.0 | 1.0 | 0.00 | 0.00 | 0.00 | 55 | 1009.3 |
| 20260902084508 | 86 | 94 | 0.0 | 1.0 | 0.00 | 0.00 | 0.00 | 55 | 1009.4 |
| 20260902083005 | 86 | 94 | 0.0 | 1.0 | 0.00 | 0.00 | 0.00 | 54 | 1009.3 |
| 20260902081501 | 86 | 95 | 0.0 | 0.0 | 0.00 | 0.00 | 0.00 | 53 | 1009.4 |
| 20260902080113 | 87 | 95 | 0.0 | 0.0 | 0.00 | 0.00 | 0.00 | 50 | 1009.4 |
| 20260902074611 | 87 | 95 | 0.0 | 1.0 | 0.00 | 0.00 | 0.00 | 51 | 1009.4 |
| 20260902073109 | 87 | 95 | 0.0 | 0.0 | 0.00 | 0.00 | 0.00 | 51 | 1009.3 |
| 20260902071610 | 88 | 95 | 0.0 | 1.0 | 0.00 | 0.00 | 0.00 | 49 | 1009.0 |
| 20260902070055 | 88 | 97 | 0.0 | 0.0 | 0.00 | 0.00 | 0.00 | 48 | 1008.9 |
| 20260902064554 | 89 | 79 | 0.0 | 2.0 | 0.00 | 0.00 | 0.00 | 46 | 1008.8 |
| 20260902063055 | 89 | 94 | 1.0 | 2.0 | 0.00 | 0.00 | 0.00 | 46 | 1008.9 |
| 20260902061605 | 89 | 122 | 0.0 | 1.0 | 0.00 | 0.00 | 0.00 | 45 | 1008.8 |
| 20260902060050 | 88 | 134 | 0.0 | 1.0 | 0.00 | 0.00 | 0.00 | 45 | 1008.9 |
| 20260902054549 | 88 | 141 | 0.0 | 0.0 | 0.00 | 0.00 | 0.00 | 45 | 1009.0 |
| 20260902053049 | 87 | 172 | 0.0 | 0.0 | 0.00 | 0.00 | 0.00 | 49 | 1008.9 |
| 20260902051545 | 87 | 172 | 0.0 | 0.0 | 0.00 | 0.00 | 0.00 | 49 | 1008.9 |
| 20260902050045 | 87 | 172 | 0.0 | 0.0 | 0.00 | 0.00 | 0.00 | 48 | 1008.9 |
| 20260902044540 | 87 | 172 | 0.0 | 0.0 | 0.00 | 0.00 | 0.00 | 46 | 1008.7 |
| 20260902043037 | 87 | 172 | 0.0 | 0.0 | 0.00 | 0.00 | 0.00 | 46 | 1008.6 |
| 20260902041540 | 88 | 172 | 0.0 | 0.0 | 0.00 | 0.00 | 0.00 | 46 | 1008.7 |
| 20260902034556 | 90 | 172 | 0.0 | 0.0 | 0.00 | 0.00 | 0.00 | 42 | 1008.3 |
| 20260902033024 | 90 | 172 | 0.0 | 0.0 | 0.00 | 0.00 | 0.00 | 42 | 1008.0 |
| 20260902031523 | 90 | 175 | 0.0 | 0.0 | 0.00 | 0.00 | 0.00 | 41 | 1007.8 |
| 20260902030020 | 90 | 175 | 0.0 | 0.0 | 0.00 | 0.00 | 0.00 | 40 | 1007.4 |
| 20260902024520 | 90 | 175 | 0.0 | 0.0 | 0.00 | 0.00 | 0.00 | 40 | 1007.4 |
| 20260902023019 | 91 | 175 | 0.0 | 0.0 | 0.00 | 0.00 | 0.00 | 39 | 1007.3 |
| 20260902021520 | 92 | 175 | 0.0 | 0.0 | 0.00 | 0.00 | 0.00 | 38 | 1007.1 |